Terminal Aerodrome Forecast
Issued by NWS Duluth, MN

Home | Current Version | Previous Version | Text Only | Print | Product List | Glossary On
Versions: 1 2 3 4 5 6 7 8 9 10 11 12 13 14 15 16 17 18 19 20 21 22 23 24 25 26 27 28 29
000
FTUS43 KDLH 010000 AAA
TAFINL
TAF AMD
KINL 010059Z 0101/0124 19004KT P6SM VCSH SCT035 OVC060
     FM010200 22008G14KT 4SM -SN BR SCT022 BKN030
      TEMPO 0102/0104 2SM -SN BR BKN014 OVC022
     FM010900 25006KT P6SM SCT030 BKN050
     FM011600 27010KT P6SM BKN035=

USA.gov is the U.S. government's official web portal to all federal, state and local government web resources and services.